User: anonymous   Login
Location: Unspecified
(0.0000°N, 0.0000°E)
Time: 22:50:43
(UTC+00:00)
Language:

NNS O-25 - Orbit

View from above orbital plane
View from above orbital plane
View from above satellite
View from above satellite

Ground track
Ground track

The orbit data is extracted from the following two-line orbital elements,

1 19419U 88074A   21027.49581712  .00000029  00000-0  36524-4 0  9995
2 19419  89.9958  17.8198 0094616 284.0514 187.3219 13.42245442587561
Epoch (UTC): 27 January 2021 11:53:58
Eccentricity: 0.0094616
inclination: 89.9958°
perigee height: 1030 km
apogee height: 1171 km
right ascension of ascending node: 17.8198°
argument of perigee: 284.0514°
revolutions per day: 13.42245442
mean anomaly at epoch: 187.3219°
orbit number at epoch: 58756

The dashed part of the orbit path shows where the satellite is in the earth's shadow,  

DLR